Tracking 29594 objects as of 20-Sep-2024
HD Live streaming from Space Station
objects crossing your sky now

FENGYUN 1C DEB

Track FENGYUN 1C DEB now!
10-day predictions


NORAD ID: 31921
Int'l Code: 1999-025CLY
Perigee: 840.7 km
Apogee: 1,149.5 km
Inclination: 99.4 °
Period: 104.9 minutes
Semi major axis: 7366 km
RCS: 0.0067 m2 (small)
Launch date: May 10, 1999
Source: People's Republic of China (PRC)
Launch site: Taiyaun Space Center, China (TSC)

Note: This is SATELLITE DEBRIS
Your satellite tracking list
Your tracking list is empty




NASA's NSSDC Master Catalog

Two Line Element Set (TLE):
1 31921U 99025CLY 24264.15699893  .00003563  00000-0  33223-2 0  9991
2 31921  99.3589 159.6840 0209617   0.1370 359.9802 13.73230356861420
Source of the keplerian elements: AFSPC